This demonstration page uses our WeatherBlox Daily Observations layout. Learn more.

Left ArrowRight Arrow

Hourly Observations for March 3, 2015

Temp ( °F °C ) Dew Point ( °F °C ) Humidity (%) Winds ( mph kmh ) Pressure ( in mb ) Visibility ( mi km ) Precip ( " mm )
12:53 am 00:53 Clear 8 -13.3 -1 -18.3 66 66 N 5 7 30.35 1028 10 16 N/A
1:53 am 01:53 Clear 7 -13.9 -1 -18.3 70 70 WNW 8 13 30.37 1028 10 16 N/A
2:53 am 02:53 Clear 5 -15 -1 -18.3 76 76 WNW 8 13 30.37 1029 10 16 N/A
3:53 am 03:53 Cloudy 8 -13.3 2 -16.7 76 76 WNW 13 20 30.38 1029 10 16 N/A
4:53 am 04:53 Clear 5 -15 -3 -19.4 69 69 WNW 9 15 30.40 1029 10 16 N/A
5:53 am 05:53 Clear 1 -17.2 -4 -20 79 79 W 8 13 30.40 1030 10 16 N/A
6:53 am 06:53 Mostly Cloudy N/A -5 -20.6 79 79 W 7 11 30.41 1030 10 16 N/A
7:15 am 07:15 Mostly Cloudy 1 -17.2 -4 -20 79 79 WSW 9 15 30.53 1034 10 16 N/A
7:23 am 07:23 Mostly Sunny 1 -17.2 -4 -20 79 79 WSW 9 15 30.53 1034 10 16 N/A
7:53 am 07:53 Sunny 4 -15.6 -2 -18.9 76 76 WSW 9 15 30.39 1029 10 16 N/A
8:53 am 08:53 Mostly Sunny 8 -13.3 -3 -19.4 60 60 W 15 24 30.39 1029 10 16 N/A
9:53 am 09:53 Sunny 10 -12.2 -3 -19.4 55 55 W 14 22 30.37 1028 10 16 N/A
10:53 am 10:53 Mostly Sunny 14 -10 -4 -20 44 44 WNW 16 26 30.34 1028 10 16 N/A
11:53 am 11:53 Mostly Sunny 16 -8.9 -6 -21.1 37 37 WNW 14 22 30.31 1026 10 16 N/A
12:53 pm 12:53 Sunny 18 -7.8 -9 -22.8 29 29 WNW 17 28 30.28 1025 10 16 N/A
1:53 pm 13:53 Sunny 19 -7.2 -8 -22.2 29 29 WNW 23 37 30.24 1024 10 16 N/A
2:53 pm 14:53 Sunny 19 -7.2 -7 -21.7 31 31 NW 22 35 30.23 1024 10 16 N/A
3:53 pm 15:53 Sunny 19 -7.2 -4 -20 36 36 WNW 23 37 30.21 1023 10 16 N/A
4:53 pm 16:53 Sunny 18 -7.8 -4 -20 37 37 NW 21 33 30.22 1024 10 16 N/A
5:53 pm 17:53 Partly Cloudy 16 -8.9 -2 -18.9 45 45 WNW 15 24 30.24 1024 10 16 N/A
6:53 pm 18:53 Mostly Clear 13 -10.6 -1 -18.3 54 54 WNW 9 15 30.28 1026 10 16 N/A
7:53 pm 19:53 Clear 11 -11.7 1 -17.2 64 64 WNW 9 15 30.29 1026 10 16 N/A
8:53 pm 20:53 Clear 8 -13.3 -3 -19.4 60 60 W 5 7 30.31 1027 10 16 N/A
9:53 pm 21:53 Clear 4 -15.6 -5 -20.6 66 66 W 8 13 30.34 1028 10 16 N/A
10:53 pm 22:53 Clear 4 -15.6 -4 -20 69 69 SW 9 15 30.36 1028 10 16 N/A
11:53 pm 23:53 Clear 1 -17.2 -4 -20 79 79 W 8 13 30.38 1029 10 16 N/A

Powered by AerisWeather